OBJECT D, 56746

Orbit data source: Space-Track

You're viewing an Uncataloged Satellite

Recently launched and/or uncataloged satellites may have evolving metadata. Metadata may include but not limited to: Owner, Maufacturer, Bus, Motor, and Mission.

OBJECT D, 56746 is a South Korean satellite in SSO that was launched on Thu, 25 May 2023 UTC via an NURI launch vehicle from the Naro Space Center, South Korea (NSC). Unknown objects in Earth's orbit typically refer to objects detected orbiting the Earth but have not yet been identified or cataloged. These objects could be anything from previously untracked satellites, spent rocket stages, debris from satellite collisions, or even natural meteoroids temporarily captured by Earth's gravity.

Loading next visibility...
Identifier
56746, 2023-072D
Orbit
SSO
Country
Flag of KRKR / SKOR
Related business
None
Manufacturer
Unknown
Mission
Operational Civil Ast/Sci
Bus & Motor
Unknown
Mass
Unknown
Launch date (UTC)
2023-05-25 (3 years ago)
Launch vehicle
NURI
Launch site
Naro Space Center, South Korea (NSC)
Object type
Unknown
Shape & HBR
Box + 2 Pan, 0.3 m
Radar Cross Section
0.054 m², Small (<0.1 m²)

Expand to show TLE details & history
Last TLE update: 9 hours ago

TLE from 9 hours ago
0 OBJECT D
1 56746U 23072D   26126.27652286  .00058854  00000-0  62827-3 0  9995
2 56746  97.4979 339.8358 0003525 121.1968 238.9637 15.63748161164301
Epoch: 2026-05-06T06:38Z
TLE epoch observation values (Epoch: 2026-05-06T06:38:11.575Z)
Latitude
0.00007°
Longitude
16.14823°
Altitude
381.217 km
Speed
7.68 km/s
True Right ascension
22h 39m 20s
True Declination
0° 00' 00"
Sunlit
Object was in daylight at epoch
Visualization orbit readout
Latitude
Unknown
Longitude
Unknown
Altitude
Unknown
Speed
Unknown
Apparent Right ascension
Unknown
Apparent Declination
Unknown
Sunlit
N/A
Visualization observer readout
Local Sidereal Time
23:33:40
Azimuth
Unknown
Elevation
Unknown
Doppler factor
Unknown
Orbital elements
Apogee altitude
376.133 km
Perigee altitude
371.373 km
Semi-major axis
6,751.89 km
Eccentricity
0.00035
Inclination
97.4979°
RAAN
339.8358°
Arg. of periapsis
121.1968°
True anomaly
238.9291°
Mean anomaly
238.9637°
Eccentric anomaly
238.9464°
Mean motion
3.91206 °/min
Orbital period
92.02 mins
BSTAR
0.00062827
Loading maneuver chart data...
Computing Atmospheric mass density...
Loading historical data...
Loading historical data...
Loading historical data...
Loading historical data...
Loading historical data...
Loading historical data...
Loading historical data...

Documentation

Showing up to 5 results
|